sat.trackr.live / text

‹ back to catalog

STARLINK-35288

NORAD 65749 · 2025-216R

PAYLOAD ACTIVE UNKNOWN

§ Identity

Operator
Country
US
Launch date
2025-09-25
Launch site
AFETR
Launch vehicle
Mass (kg)
RCS (m²)

Purposes: comms

External: N2YO · Heavens-Above · Gunter

§ Orbital elements

Epoch: 2026-05-24T23:25:24.337632Z

Period
94.10 min
Inclination
53.1598°
Eccentricity
0.0001205
Mean motion
15.30217913 rev/d
Perigee alt
474.3 km
Apogee alt
476.0 km
Semi-major
6,853.3 km
B*
6.8965e-4
RAAN
338.5325°
Arg perigee
97.1313°
Mean anomaly
262.9825°
Rev number
3,819

§ Raw data

STARLINK-352881 65749U 25216R   26144.97597613  .00020133  00000+0  68965-3 0  99962 65749  53.1598 338.5325 0001205  97.1313 262.9825 15.30217913 38192

JSON: /api/v1/satellites/65749 · /tle

For live sub-satellite position, see the globe view (requires WebGL).

§ Visibility from observer

Set your observer location to see the next 7 days of passes ≥ 10°. The values pass through the URL so the page stays shareable.

No JS? Fill the form by hand. The geolocation button needs JavaScript.